New Castle, PA

6:47 PM EDT on October 01, 2016 (GMT -0400)
New Castle Municipal

Weather History for KUCP - May, 2014

Change the Weather History Date:

Sunday, May 18, 2014

  Actual Average Record
Temperature  
Mean Temperature 48 °F -  
Max Temperature 61 °F 74 °F 91 °F (1962)
Min Temperature 35 °F 45 °F 31 °F (1935)
Degree Days  
Heating Degree Days 17    
Moisture  
Dew Point 37 °F    
Average Humidity 82    
Maximum Humidity 100    
Minimum Humidity 32    
Precipitation  
Precipitation 0.00 in - - ()
Sea Level Pressure  
Sea Level Pressure 30.29 in    
Wind  
Wind Speed 0 mph (NW)    
Max Wind Speed 8 mph    
Max Gust Speed -    
Visibility 5 miles    
Events Fog    
Averages and records for this station are not official NWS values.
T = Trace of Precipitation, MM = Missing Value Source: NWS Daily Summary

Daily Weather History Graph

Daily Weather History Graph

Search for Another Location

Airport or City:

Trip Planner

Search our weather history database for the weather conditions in past years. The results will help you decide how hot, cold, wet, or windy it might be!

Date:

Astronomy

May. 18, 2014 Rise Set
Actual Time 6:01 AM EDT 8:35 PM EDT
Civil Twilight 5:29 AM EDT 9:07 PM EDT
Nautical Twilight 4:50 AM EDT 9:46 PM EDT
Astronomical Twilight 4:05 AM EDT 10:31 PM EDT
Moon No Moon Rise 9:48 AM EDT (5/18)
Length of Visible Light 15h 37m
Length of Day
14h 34m
Waning Gibbous, 81% of the Moon is Illuminated
May 18
Waning Gibbous
May 21
Last Quarter
May 28
New
Jun 5
First Quarter
Jun 13
Full

Hourly Weather History & Observations

Time (EDT) Temp. Dew Point Humidity Pressure Visibility Wind Dir Wind Speed Gust Speed Precip Events Conditions
12:04 AM 39.2 °F 39.2 °F 100% 30.23 in 0.2 mi Calm Calm - N/A Fog Fog
12:12 AM 39.2 °F 39.2 °F 100% 30.23 in 0.2 mi Calm Calm - N/A Fog Fog
12:36 AM 37.4 °F 37.4 °F 100% 30.23 in 0.2 mi Calm Calm - N/A Fog Fog
12:44 AM 39.2 °F 39.2 °F 100% 30.23 in 0.8 mi Calm Calm - N/A   Clear
12:48 AM 39.2 °F 39.2 °F 100% 30.23 in 1.2 mi Calm Calm - N/A   Clear
12:56 AM 38.8 °F 38.8 °F 100% 30.30 in 0.2 mi Calm Calm - N/A Fog Fog
1:03 AM 39.2 °F 39.2 °F 100% 30.24 in 0.2 mi Calm Calm - N/A Fog Fog
1:30 AM 39.2 °F 39.2 °F 100% 30.24 in 1.0 mi Calm Calm - N/A   Mist
1:32 AM 39.2 °F 39.2 °F 100% 30.24 in 1.5 mi Calm Calm - N/A   Mostly Cloudy
1:35 AM 39.2 °F 39.2 °F 100% 30.24 in 3.0 mi Calm Calm - N/A   Partly Cloudy
1:56 AM 39.9 °F 39.9 °F 100% 30.30 in 7.0 mi Calm Calm - N/A   Mostly Cloudy
2:56 AM 39.9 °F 39.9 °F 100% 30.30 in 5.0 mi Calm Calm - N/A   Mostly Cloudy
3:34 AM 37.4 °F 37.4 °F 100% 30.24 in 1.8 mi Calm Calm - N/A   Clear
3:45 AM 37.4 °F 37.4 °F 100% 30.25 in 1.0 mi Calm Calm - N/A   Clear
3:49 AM 37.4 °F 37.4 °F 100% 30.25 in 0.5 mi Calm Calm - N/A Fog Fog
3:56 AM 36.9 °F 36.9 °F 100% 30.31 in 0.2 mi Calm Calm - N/A Fog Fog
4:39 AM 35.6 °F 35.6 °F 100% 30.25 in 0.2 mi Calm Calm - N/A Fog Fog
4:48 AM 35.6 °F 35.6 °F 100% 30.26 in 0.2 mi Calm Calm - N/A Fog Fog
4:56 AM 37.4 °F 37.4 °F 100% 30.26 in 0.2 mi Calm Calm - N/A Fog Fog
5:56 AM 36.9 °F 36.9 °F 100% 30.34 in 0.2 mi Calm Calm - N/A Fog Fog
6:56 AM 36.9 °F 36.9 °F 100% 30.35 in 0.2 mi Calm Calm - N/A Fog Fog
7:56 AM 39.9 °F 39.9 °F 100% 30.36 in 0.5 mi Calm Calm - N/A Fog Fog
7:59 AM 39.2 °F 39.2 °F 100% 30.30 in 1.0 mi Calm Calm - N/A   Mist
8:01 AM 39.2 °F 39.2 °F 100% 30.30 in 2.0 mi Calm Calm - N/A   Scattered Clouds
8:09 AM 41.0 °F 41.0 °F 100% 30.30 in 4.0 mi Calm Calm - N/A   Partly Cloudy
8:56 AM 43.9 °F 43.9 °F 100% 30.37 in 10.0 mi Calm Calm - N/A   Clear
9:56 AM 50.9 °F 43.0 °F 74% 30.37 in 10.0 mi Calm Calm - N/A   Clear
10:56 AM 51.8 °F 37.4 °F 58% 30.31 in 10.0 mi WNW 3.5 mph - N/A   Mostly Cloudy
11:56 AM 54.9 °F 32.9 °F 43% 30.37 in 10.0 mi Calm Calm - N/A   Scattered Clouds
12:56 PM 55.9 °F 32.9 °F 42% 30.36 in 10.0 mi Calm Calm - N/A   Mostly Cloudy
1:56 PM 57.9 °F 31.1 °F 36% 30.34 in 10.0 mi Calm Calm - N/A   Partly Cloudy
2:56 PM 57.9 °F 32.9 °F 39% 30.33 in 10.0 mi Calm Calm - N/A   Scattered Clouds
3:56 PM 61.0 °F 31.1 °F 32% 30.32 in 10.0 mi NW 8.1 mph - N/A   Scattered Clouds
4:56 PM 59.0 °F 32.0 °F 36% 30.26 in 10.0 mi Calm Calm - N/A   Clear
5:56 PM 61.0 °F 31.1 °F 32% 30.31 in 10.0 mi Calm Calm - N/A   Clear
6:56 PM 59.9 °F 31.1 °F 34% 30.31 in 10.0 mi Calm Calm - N/A   Clear
7:56 PM 57.2 °F 35.6 °F 44% 30.25 in 10.0 mi Calm Calm - N/A   Clear
8:56 PM 48.9 °F 36.9 °F 63% 30.32 in 10.0 mi Calm Calm - N/A   Clear
9:56 PM 46.9 °F 36.0 °F 66% 30.32 in 10.0 mi Calm Calm - N/A   Clear
10:56 PM 42.8 °F 39.2 °F 87% 30.28 in 10.0 mi Calm Calm - N/A   Clear
11:56 PM 43.0 °F 37.9 °F 82% 30.34 in 10.0 mi Calm Calm - N/A   Clear